GW3255 Weather Reports


Display with metric or nautical units.
time (UTC)temp
F
wind
direction
speed
MPH
gust
MPH
rain 1hr
in
rain 24hr
in
rain mn
in
humidity
%
barometer
mb
20260504044509 43 348 0.0 1.0 0.00 0.00 0.00 65 1015.3
20260504043003 42 348 0.0 1.0 0.00 0.00 0.00 69 1015.3
20260504041529 42 348 0.0 0.0 0.00 0.00 0.00 67 1015.0
20260504040012 42 348 0.0 0.0 0.00 0.00 0.00 67 1014.7
20260504034512 43 348 0.0 1.0 0.00 0.00 0.00 67 1014.8
20260504033008 43 348 0.0 1.0 0.00 0.00 0.00 67 1014.7
20260504031508 43 348 0.0 1.0 0.00 0.00 0.00 66 1014.7
20260504030005 43 348 0.0 1.0 0.00 0.00 0.00 67 1014.6
20260504024524 44 348 0.0 1.0 0.00 0.00 0.00 65 1014.5
20260504023019 44 348 0.0 1.0 0.00 0.00 0.00 64 1014.6
20260504021515 44 348 0.0 0.0 0.00 0.00 0.00 64 1014.7
20260504020016 45 348 0.0 1.0 0.00 0.00 0.00 64 1014.6
20260504014522 45 348 0.0 1.0 0.00 0.00 0.00 62 1014.6
20260504013009 46 348 0.0 1.0 0.00 0.00 0.00 61 1014.4
20260504011506 47 348 0.0 1.0 0.00 0.00 0.00 61 1014.2
20260504010023 47 348 0.0 1.0 0.00 0.00 0.00 60 1014.1
20260504004522 48 348 1.0 2.0 0.00 0.00 0.00 57 1014.1
20260504003020 48 350 1.0 2.0 0.00 0.00 0.00 55 1013.9
20260504001516 49 342 1.0 2.0 0.00 0.00 0.00 54 1013.6
20260504000014 50 332 0.0 1.0 0.00 0.00 0.00 51 1013.4
20260503234512 51 33 0.0 3.0 0.00 0.00 0.00 47 1013.3
20260503233015 53 250 0.0 1.0 0.00 0.00 0.00 46 1013.2
20260503231525 55 250 0.0 3.0 0.00 0.00 0.00 40 1013.2
20260503230023 56 305 2.0 5.0 0.00 0.00 0.00 37 1013.2
20260503224524 57 226 3.0 6.0 0.00 0.00 0.00 35 1013.2
20260503223020 58 312 3.0 6.0 0.00 0.00 0.00 34 1013.0
20260503221526 59 343 2.0 9.0 0.00 0.00 0.00 34 1013.2
20260503220015 59 205 1.0 6.0 0.00 0.00 0.00 35 1013.2
20260503214512 58 167 2.0 9.0 0.00 0.00 0.00 34 1013.1
20260503213026 60 354 2.0 7.0 0.00 0.00 0.00 34 1013.1
20260503211526 59 246 4.0 6.0 0.00 0.00 0.00 33 1013.1
20260503210023 59 59 1.0 8.0 0.00 0.00 0.00 36 1013.1
20260503204524 59 209 5.0 12.0 0.00 0.00 0.00 32 1013.2
20260503203021 59 262 2.0 8.0 0.00 0.00 0.00 32 1013.2
20260503201519 59 211 2.0 8.0 0.00 0.00 0.00 35 1013.3
20260503200016 58 85 2.0 9.0 0.00 0.00 0.00 35 1013.6
20260503194514 58 303 4.0 16.0 0.00 0.00 0.00 33 1013.7
20260503193010 58 207 3.0 17.0 0.00 0.00 0.00 34 1013.8
20260503191510 59 163 3.0 9.0 0.00 0.00 0.00 37 1013.9
20260503190006 58 252 1.0 13.0 0.00 0.00 0.00 39 1014.0
20260503184510 57 250 4.0 10.0 0.00 0.00 0.00 36 1014.0
20260503183004 56 255 3.0 9.0 0.00 0.00 0.00 39 1014.3
20260503181518 56 30 2.0 8.0 0.00 0.00 0.00 40 1014.2
20260503180018 56 328 3.0 8.0 0.00 0.00 0.00 41 1014.4
20260503174515 56 32 4.0 9.0 0.00 0.00 0.00 37 1014.5
20260503173014 54 352 3.0 9.0 0.00 0.00 0.00 37 1014.6
20260503171506 54 54 4.0 12.0 0.00 0.00 0.00 38 1014.6
20260503081518 40 117 0.0 3.0 0.00 0.00 0.00 73 1012.7
20260503071513 41 174 0.0 3.0 0.00 0.00 0.00 73 1012.3